TimeMST,TemperatureF,Dew PointF,Humidity,Sea Level PressureIn,VisibilityMPH,Wind Direction,Wind SpeedMPH,Gust SpeedMPH,PrecipitationIn,Events,Conditions,WindDirDegrees,DateUTC
12:51 AM,80.1,43.0,27,29.72,10.0,East,5.8,-,N/A,,Clear,90,2013-09-25 07:51:00
1:51 AM,77.0,43.0,30,29.71,10.0,ESE,5.8,-,N/A,,Clear,110,2013-09-25 08:51:00
2:51 AM,77.0,43.0,30,29.71,10.0,NE,5.8,-,N/A,,Clear,50,2013-09-25 09:51:00
3:51 AM,73.9,44.1,34,29.71,10.0,East,6.9,-,N/A,,Clear,100,2013-09-25 10:51:00
4:51 AM,73.9,43.0,33,29.71,10.0,East,6.9,-,N/A,,Clear,80,2013-09-25 11:51:00
5:51 AM,73.0,43.0,34,29.71,10.0,East,5.8,-,N/A,,Clear,100,2013-09-25 12:51:00
6:51 AM,73.0,42.1,33,29.71,10.0,East,6.9,-,N/A,,Clear,100,2013-09-25 13:51:00
7:51 AM,75.9,42.1,30,29.72,10.0,East,9.2,-,N/A,,Clear,100,2013-09-25 14:51:00
8:51 AM,81.0,43.0,26,29.72,10.0,SE,8.1,-,N/A,,Clear,140,2013-09-25 15:51:00
9:51 AM,84.0,42.1,23,29.72,10.0,SE,8.1,-,N/A,,Clear,140,2013-09-25 16:51:00
10:51 AM,87.1,37.0,17,29.70,10.0,Variable,4.6,-,N/A,,Clear,0,2013-09-25 17:51:00
11:51 AM,91.9,34.0,13,29.67,10.0,SSE,6.9,-,N/A,,Clear,160,2013-09-25 18:51:00
12:51 PM,90.0,33.1,13,29.65,10.0,Variable,4.6,-,N/A,,Clear,0,2013-09-25 19:51:00
1:51 PM,93.0,34.0,12,29.61,10.0,West,5.8,-,N/A,,Clear,280,2013-09-25 20:51:00
2:51 PM,93.9,34.0,12,29.59,10.0,Variable,4.6,-,N/A,,Clear,0,2013-09-25 21:51:00
3:51 PM,95.0,32.0,11,29.57,10.0,South,9.2,-,N/A,,Clear,170,2013-09-25 22:51:00
4:51 PM,96.1,28.0,9,29.55,10.0,West,9.2,-,N/A,,Clear,260,2013-09-25 23:51:00
5:51 PM,93.9,28.0,10,29.54,10.0,WSW,10.4,-,N/A,,Clear,250,2013-09-26 00:51:00
6:51 PM,91.9,35.1,13,29.54,10.0,NW,6.9,-,N/A,,Clear,310,2013-09-26 01:51:00
7:51 PM,89.1,37.9,16,29.55,10.0,SW,4.6,-,N/A,,Clear,230,2013-09-26 02:51:00
8:51 PM,86.0,39.0,19,29.57,10.0,Calm,Calm,-,N/A,,Clear,0,2013-09-26 03:51:00
9:51 PM,86.0,39.0,19,29.58,10.0,South,8.1,-,N/A,,Clear,170,2013-09-26 04:51:00
10:51 PM,82.9,43.0,24,29.59,10.0,South,16.1,-,N/A,,Clear,180,2013-09-26 05:51:00
11:51 PM,82.9,43.0,24,29.58,10.0,South,10.4,-,N/A,,Clear,190,2013-09-26 06:51:00